Simultaneous Nadir Overpasses (SNOs) Predictions

Prediction of SNOs between METOP-A and NOAA-19 Satellite Orbit:

Table of predicted SNOs for the next 14.0 days since TLE Epoch: 6/15/2012
Index Date (METOP-A) Time (METOP-A) METOP-A Lat,Lon Date (NOAA-19) Time (NOAA-19) NOAA-19 Lat,Lon Distance(km) Time Diff (sec)
1 06/15/2012 09:18:23 73.10, 33.06 06/15/2012 09:17:09 73.12, 33.11 2.67 74
2 06/15/2012 10:09:05 -73.11,-159.59 06/15/2012 10:08:14 -73.08,-159.58 3.65 51
3 06/15/2012 10:59:45 73.08, 7.67 06/15/2012 10:59:13 73.05, 7.73 3.15 32
4 06/15/2012 11:50:28 -73.04, 174.91 06/15/2012 11:50:19 -73.07, 174.93 3.07 9
5 06/15/2012 12:41:07 73.06, -17.72 06/15/2012 12:41:18 73.04, -17.77 2.09 11
6 06/15/2012 13:31:50 -73.02, 149.53 06/15/2012 13:32:23 -73.01, 149.54 1.48 33
7 06/15/2012 14:22:30 72.98, -43.21 06/15/2012 14:23:22 72.98, -43.15 1.92 52
8 06/15/2012 15:13:13 -72.95, 124.03 06/15/2012 15:14:27 -72.94, 124.15 3.93 74
9 06/25/2012 05:48:29 73.51, 86.40 06/25/2012 05:47:19 73.57, 84.59 57.56 70
10 06/25/2012 06:39:19 -73.13,-107.11 06/25/2012 06:38:17 -73.12,-107.16 2.27 62
11 06/25/2012 07:29:59 73.08, 60.12 06/25/2012 07:29:15 73.11, 60.11 3.20 44
12 06/25/2012 08:20:42 -73.06,-132.61 06/25/2012 08:20:21 -73.06,-132.55 2.06 21
13 06/25/2012 09:11:21 73.06, 34.73 06/25/2012 09:11:19 73.05, 34.72 1.11 2
14 06/25/2012 10:02:04 -73.04,-157.99 06/25/2012 10:02:26 -73.05,-158.04 1.78 22
15 06/25/2012 10:52:44 72.99, 9.24 06/25/2012 10:53:23 72.99, 9.34 3.22
